[Date Prev][Date Next][Thread Prev][Thread Next] - [Date Index][Thread Index][Author Index]
2 Line ISS Keps 10-12
- Subject: [sarex] 2 Line ISS Keps 10-12
- From: "Dave Larsen PhD" <doc@xxxxxxxxxxx>
- Date: Tue, 12 Oct 2004 04:26:27 -0700
ISS
1 25544U 98067A 04286.21541667 .00017064 00000-0 14948-3 0 8910
2 25544 51.6355 88.5785 0009253 215.8184 134.8245 15.68958733336695
----
Via the sarex mailing list at AMSAT.ORG courtesy of AMSAT-NA.
To unsubscribe, send "unsubscribe sarex" to Majordomo@amsat.org
AMSAT Home